Location: Oberkirch
(48.5323°N, 8.0787°E)
Time: 16:31:12
(UTC+00:00)

CENTAUR R/B - Pass Details

Date: 08 November 2025
Orbit: 633 x 1547 km, 63.4° (Epoch: 13 December)

Event Time Altitude Azimuth Distance (km) Brightness Sun altitude
Exits shadow 02:05:12 25° 10° (N) 2,196 4.5 -42.4°
Drops below altitude 10° 02:10:22 10° 47° (NE) 3,349 5.9 -41.7°
Sets 02:14:07 0° 59° (ENE) 4,460 6.8 -41.1°
